EST,Max TemperatureF,Mean TemperatureF,Min TemperatureF,Max Dew PointF,MeanDew PointF,Min DewpointF,Max Humidity, Mean Humidity, Min Humidity, Max Sea Level PressureIn, Mean Sea Level PressureIn, Min Sea Level PressureIn, Max VisibilityMiles, Mean VisibilityMiles, Min VisibilityMiles, Max Wind SpeedMPH, Mean Wind SpeedMPH, Max Gust SpeedMPH,PrecipitationIn, CloudCover, Events, WindDirDegrees
2014-2-1,62,51,39,44,30,19,61,45,29,30.06,29.95,29.86,10,10,10,22,7,30,0.00,7,,192
2014-2-2,54,42,29,49,33,27,93,82,71,30.23,30.10,29.92,10,3,1,16,7,23,0.72,8,Rain-Snow,354
2014-2-3,36,29,21,27,23,18,92,70,47,30.36,30.24,30.11,10,6,0,14,5,20,0.12,5,Fog-Snow,358
2014-2-4,33,28,22,31,26,19,92,82,72,30.35,30.08,29.79,9,5,0,18,6,24,1.33,6,Fog-Rain-Snow,58
2014-2-5,34,30,26,32,26,21,100,91,81,30.43,30.06,29.75,10,5,1,21,9,29,0.06,8,Rain-Snow,287
2014-2-6,26,19,11,22,17,4,88,81,73,30.51,30.45,30.40,10,6,1,14,7,15,T,7,Snow,319
2014-2-7,21,13,5,11,4,-4,76,66,56,30.56,30.48,30.40,10,10,10,9,3,12,0.00,0,,7
2014-2-8,29,23,17,27,19,12,85,79,73,30.39,30.27,30.16,10,6,1,8,3,10,0.01,8,Snow,95
2014-2-9,33,29,24,28,23,17,92,78,63,30.30,30.18,30.09,10,6,1,14,6,17,0.01,8,Snow,299
2014-2-10,25,19,13,18,7,4,81,62,42,30.44,30.37,30.27,10,10,8,13,6,17,T,2,,350
2014-2-11,26,16,6,11,5,-1,76,59,42,30.52,30.46,30.40,10,10,8,10,5,14,0.00,0,,31
2014-2-12,37,24,10,19,12,5,83,64,44,30.40,30.19,30.02,10,10,8,9,3,10,0.00,0,,32
2014-2-13,42,30,18,19,14,10,77,53,28,29.98,29.86,29.73,10,9,6,12,3,16,0.00,0,,232
2014-2-14,40,32,24,34,27,19,92,72,52,29.86,29.72,29.63,10,5,1,20,7,26,0.32,6,Rain-Snow,306
2014-2-15,30,25,19,23,17,12,81,70,58,30.19,30.10,29.89,10,8,1,18,6,24,T,6,Snow,263
2014-2-16,37,32,26,26,23,18,78,69,59,30.29,30.14,30.01,10,8,2,13,6,16,T,7,Snow,292
2014-2-17,44,35,25,41,30,17,92,76,59,30.29,29.99,29.74,10,7,0,25,9,35,0.57,5,Fog-Rain,180
2014-2-18,58,44,30,34,29,26,85,58,30,30.16,30.02,29.82,10,10,9,16,7,21,0.00,1,,185
2014-2-19,57,52,47,49,36,29,89,62,35,30.06,29.94,29.76,10,10,8,17,7,22,T,1,,278
2014-2-20,72,59,45,59,49,30,78,66,53,29.99,29.70,29.54,10,9,2,39,12,47,0.33,6,Rain-Thunderstorm,177
2014-2-21,51,46,40,39,23,9,71,45,18,30.02,29.90,29.68,10,10,10,26,11,35,T,1,Rain,234
2014-2-22,64,49,34,32,21,17,58,39,19,30.11,30.02,29.93,10,10,10,15,6,24,0.00,0,,219
2014-2-23,44,36,28,34,30,16,96,80,63,30.26,30.13,30.03,10,8,0,15,7,21,0.04,5,Fog-Rain-Snow,353
2014-2-24,41,32,22,15,11,6,65,44,23,30.36,30.29,30.23,10,10,10,14,5,18,0.00,0,,321
2014-2-25,38,32,26,21,16,11,58,51,44,30.25,30.19,30.14,10,10,2,18,7,22,T,7,Snow,332
2014-2-26,27,22,16,21,8,0,81,57,33,30.26,30.14,29.99,10,9,2,20,10,24,T,4,Snow,301
2014-2-27,32,25,18,10,1,-9,57,37,17,30.19,30.04,29.91,10,10,10,22,10,29,0.00,0,,291
2014-2-28,44,30,16,12,5,0,59,39,18,30.27,30.17,30.08,10,10,10,10,5,25,0.00,1,,84